| time (UTC) | temp C | wind direction | speed KPH | gust KPH | rain 1hr cm | rain 24hr cm | rain mn cm | humidity % | barometer mb |
| 20260506070548 | 16 | 0 | 4.8 | 12.9 | 0.00 | 0.00 | 0.00 | 75 | 1008.9 |
| 20260506061608 | 16 | 338 | 6.4 | 16.1 | 0.00 | 0.00 | 0.00 | 75 | 1008.7 |
| 20260506060548 | 16 | 338 | 4.8 | 14.5 | 0.00 | 0.00 | 0.00 | 75 | 1008.5 |
| 20260506050548 | 17 | 23 | 8.0 | 17.7 | 0.00 | 0.00 | 0.00 | 74 | 1008.3 |
| 20260506044549 | 18 | 0 | 6.4 | 17.7 | 0.00 | 0.00 | 0.00 | 75 | 1008.2 |
| 20260506043549 | 18 | 0 | 6.4 | 16.1 | 0.00 | 0.00 | 0.00 | 74 | 1008.3 |
| 20260506042549 | 19 | 0 | 8.0 | 20.9 | 0.00 | 0.00 | 0.00 | 74 | 1008.1 |
| 20260506041549 | 19 | 0 | 6.4 | 14.5 | 0.00 | 0.00 | 0.00 | 74 | 1007.9 |
| 20260506040549 | 20 | 0 | 8.0 | 17.7 | 0.00 | 0.00 | 0.00 | 73 | 1007.7 |
| 20260506035549 | 20 | 0 | 12.9 | 22.5 | 0.00 | 0.00 | 0.00 | 73 | 1007.7 |
| 20260506034609 | 21 | 0 | 9.7 | 22.5 | 0.00 | 0.00 | 0.00 | 72 | 1007.5 |
| 20260506033549 | 21 | 0 | 4.8 | 12.9 | 0.00 | 0.00 | 0.00 | 73 | 1007.3 |
| 20260506032549 | 21 | 0 | 9.7 | 19.3 | 0.00 | 0.00 | 0.00 | 73 | 1007.4 |
| 20260506031547 | 21 | 0 | 8.0 | 22.5 | 0.00 | 0.00 | 0.00 | 72 | 1007.0 |
| 20260506030549 | 22 | 0 | 8.0 | 17.7 | 0.00 | 0.00 | 0.00 | 71 | 1007.1 |
| 20260506025549 | 22 | 0 | 9.7 | 17.7 | 0.00 | 0.00 | 0.00 | 71 | 1006.9 |
| 20260506024549 | 22 | 315 | 4.8 | 14.5 | 0.00 | 0.00 | 0.00 | 70 | 1006.5 |
| 20260506023549 | 23 | 0 | 9.7 | 20.9 | 0.00 | 0.00 | 0.00 | 69 | 1005.9 |
| 20260506022609 | 23 | 0 | 4.8 | 16.1 | 0.00 | 0.00 | 0.00 | 68 | 1005.8 |
| 20260506021549 | 23 | 0 | 6.4 | 11.3 | 0.00 | 0.00 | 0.00 | 68 | 1005.4 |
| 20260506020609 | 23 | 0 | 4.8 | 14.5 | 0.00 | 0.00 | 0.00 | 68 | 1005.3 |
| 20260506015549 | 23 | 0 | 6.4 | 14.5 | 0.00 | 0.00 | 0.00 | 67 | 1005.2 |
| 20260506014549 | 23 | 0 | 6.4 | 17.7 | 0.00 | 0.00 | 0.00 | 67 | 1005.5 |
| 20260506013549 | 24 | 23 | 6.4 | 16.1 | 0.00 | 0.00 | 0.00 | 67 | 1004.8 |
| 20260506012549 | 25 | 0 | 8.0 | 16.1 | 0.00 | 0.00 | 0.00 | 67 | 1004.8 |
| 20260506011549 | 25 | 0 | 6.4 | 16.1 | 0.00 | 0.00 | 0.00 | 66 | 1004.9 |
| 20260506010549 | 25 | 45 | 4.8 | 12.9 | 0.00 | 0.00 | 0.00 | 65 | 1004.5 |
| 20260506005549 | 26 | 0 | 3.2 | 9.7 | 0.00 | 0.00 | 0.00 | 64 | 1004.3 |
| 20260506004549 | 26 | 0 | 3.2 | 6.4 | 0.00 | 0.00 | 0.00 | 63 | 1004.4 |
| 20260506003549 | 26 | 45 | 4.8 | 14.5 | 0.00 | 0.00 | 0.00 | 63 | 1004.3 |
| 20260506002549 | 27 | 0 | 6.4 | 17.7 | 0.00 | 0.00 | 0.00 | 62 | 1004.3 |
| 20260506001549 | 27 | 0 | 6.4 | 12.9 | 0.00 | 0.00 | 0.00 | 61 | 1004.4 |
| 20260506000549 | 28 | 0 | 6.4 | 17.7 | 0.00 | 0.00 | 0.00 | 59 | 1004.1 |
| 20260505235709 | 29 | 23 | 6.4 | 17.7 | 0.00 | 0.00 | 0.00 | 57 | 1003.5 |
| 20260505234549 | 29 | 0 | 4.8 | 12.9 | 0.00 | 0.00 | 0.00 | 54 | 1003.7 |
| 20260505233549 | 29 | 248 | 4.8 | 11.3 | 0.00 | 0.00 | 0.00 | 68 | 1003.8 |
| 20260505232549 | 30 | 180 | 6.4 | 16.1 | 0.00 | 0.00 | 0.00 | 66 | 1003.1 |
| 20260505231549 | 30 | 180 | 4.8 | 14.5 | 0.00 | 0.00 | 0.00 | 66 | 1003.0 |
| 20260505230609 | 30 | 158 | 4.8 | 16.1 | 0.00 | 0.00 | 0.00 | 65 | 1003.0 |
| 20260505225549 | 30 | 180 | 4.8 | 8.0 | 0.00 | 0.00 | 0.00 | 65 | 1002.8 |
| 20260505224549 | 31 | 158 | 6.4 | 12.9 | 0.00 | 0.00 | 0.00 | 62 | 1003.0 |
| 20260505223549 | 31 | 158 | 6.4 | 14.5 | 0.00 | 0.00 | 0.00 | 61 | 1002.9 |
| 20260505222549 | 31 | 225 | 3.2 | 8.0 | 0.00 | 0.00 | 0.00 | 58 | 1002.5 |
| 20260505221609 | 31 | 135 | 6.4 | 12.9 | 0.00 | 0.00 | 0.00 | 58 | 1002.7 |
| 20260505220549 | 31 | 180 | 8.0 | 16.1 | 0.00 | 0.00 | 0.00 | 57 | 1002.8 |
| 20260505215549 | 31 | 225 | 6.4 | 12.9 | 0.00 | 0.00 | 0.00 | 56 | 1002.8 |
| 20260505214549 | 31 | 203 | 8.0 | 16.1 | 0.00 | 0.00 | 0.00 | 56 | 1002.8 |
| 20260505213549 | 31 | 225 | 9.7 | 19.3 | 0.00 | 0.00 | 0.00 | 58 | 1003.1 |
| 20260505212549 | 31 | 225 | 8.0 | 17.7 | 0.00 | 0.00 | 0.00 | 57 | 1003.0 |
| 20260505211609 | 31 | 203 | 8.0 | 17.7 | 0.00 | 0.00 | 0.00 | 57 | 1003.3 |
| 20260505210549 | 31 | 225 | 6.4 | 17.7 | 0.00 | 0.00 | 0.00 | 56 | 1003.1 |
| 20260505205549 | 32 | 225 | 6.4 | 14.5 | 0.00 | 0.00 | 0.00 | 57 | 1003.4 |
| 20260505204549 | 31 | 225 | 8.0 | 14.5 | 0.00 | 0.00 | 0.00 | 58 | 1003.4 |
| 20260505203549 | 31 | 225 | 8.0 | 20.9 | 0.00 | 0.00 | 0.00 | 60 | 1003.7 |
| 20260505202549 | 31 | 225 | 8.0 | 19.3 | 0.00 | 0.00 | 0.00 | 59 | 1003.7 |
| 20260505201549 | 31 | 225 | 9.7 | 17.7 | 0.00 | 0.00 | 0.00 | 61 | 1003.8 |
| 20260505200549 | 31 | 225 | 4.8 | 14.5 | 0.00 | 0.00 | 0.00 | 61 | 1003.8 |
| 20260505195549 | 30 | 203 | 8.0 | 19.3 | 0.00 | 0.00 | 0.00 | 61 | 1003.8 |
| 20260505194549 | 30 | 203 | 8.0 | 24.1 | 0.00 | 0.00 | 0.00 | 65 | 1003.9 |
| 20260505193549 | 30 | 248 | 8.0 | 16.1 | 0.00 | 0.00 | 0.00 | 65 | 1004.0 |
| 20260505192549 | 29 | 180 | 9.7 | 16.1 | 0.00 | 0.00 | 0.00 | 67 | 1003.9 |
| 20260505191609 | 29 | 180 | 9.7 | 20.9 | 0.00 | 0.00 | 0.00 | 67 | 1003.9 |
| 20260505190548 | 28 | 180 | 9.7 | 22.5 | 0.00 | 0.00 | 0.00 | 69 | 1004.1 |
| 20260505185549 | 28 | 225 | 9.7 | 20.9 | 0.00 | 0.00 | 0.00 | 70 | 1004.0 |
| 20260505184549 | 28 | 180 | 8.0 | 17.7 | 0.00 | 0.00 | 0.00 | 69 | 1004.1 |
| 20260505183608 | 28 | 225 | 9.7 | 20.9 | 0.00 | 0.00 | 0.00 | 69 | 1004.3 |
| 20260505182548 | 27 | 203 | 9.7 | 30.6 | 0.00 | 0.00 | 0.00 | 70 | 1004.2 |
| 20260505181549 | 27 | 203 | 9.7 | 20.9 | 0.00 | 0.00 | 0.00 | 70 | 1004.3 |
| 20260505180548 | 27 | 225 | 8.0 | 19.3 | 0.00 | 0.00 | 0.00 | 70 | 1004.3 |
| 20260505175549 | 27 | 180 | 11.3 | 25.7 | 0.00 | 0.00 | 0.00 | 70 | 1004.2 |
| 20260505174548 | 27 | 180 | 11.3 | 25.7 | 0.00 | 0.00 | 0.00 | 70 | 1004.4 |
| 20260505173549 | 27 | 225 | 9.7 | 19.3 | 0.00 | 0.00 | 0.00 | 69 | 1004.6 |
| 20260505172548 | 27 | 203 | 8.0 | 16.1 | 0.00 | 0.00 | 0.00 | 70 | 1004.5 |
| 20260505171549 | 27 | 203 | 11.3 | 19.3 | 0.00 | 0.00 | 0.00 | 71 | 1004.4 |
| 20260505170548 | 27 | 225 | 9.7 | 27.4 | 0.00 | 0.00 | 0.00 | 72 | 1004.6 |
| 20260505165549 | 26 | 203 | 11.3 | 29.0 | 0.00 | 0.00 | 0.00 | 73 | 1004.4 |
| 20260505164549 | 26 | 225 | 8.0 | 17.7 | 0.00 | 0.00 | 0.00 | 71 | 1004.3 |
| 20260505163548 | 26 | 225 | 11.3 | 17.7 | 0.00 | 0.00 | 0.00 | 72 | 1004.5 |
| 20260505162548 | 26 | 203 | 12.9 | 22.5 | 0.00 | 0.00 | 0.00 | 73 | 1004.5 |
| 20260505161548 | 26 | 248 | 11.3 | 22.5 | 0.00 | 0.00 | 0.00 | 73 | 1004.3 |
| 20260505160548 | 26 | 203 | 12.9 | 35.4 | 0.00 | 0.00 | 0.00 | 72 | 1004.1 |
| 20260505152549 | 25 | 225 | 14.5 | 27.4 | 0.00 | 0.00 | 0.00 | 75 | 1004.2 |
| 20260505151548 | 25 | 225 | 11.3 | 25.7 | 0.00 | 0.00 | 0.00 | 76 | 1004.3 |
| 20260505150548 | 25 | 203 | 11.3 | 27.4 | 0.00 | 0.00 | 0.00 | 77 | 1004.3 |
| 20260505140608 | 22 | 225 | 8.0 | 20.9 | 0.00 | 0.00 | 0.00 | 82 | 1004.0 |
| 20260505124548 | 22 | 203 | 8.0 | 16.1 | 0.00 | 0.00 | 0.00 | 83 | 1004.0 |
| 20260505123548 | 22 | 158 | 8.0 | 14.5 | 0.00 | 0.00 | 0.00 | 84 | 1003.7 |
| 20260505122548 | 21 | 180 | 8.0 | 17.7 | 0.00 | 0.00 | 0.00 | 83 | 1003.4 |
| 20260505121548 | 21 | 203 | 9.7 | 25.7 | 0.00 | 0.00 | 0.00 | 83 | 1003.5 |
| 20260505120548 | 21 | 180 | 9.7 | 24.1 | 0.00 | 0.00 | 0.00 | 83 | 1003.4 |
| 20260505115608 | 21 | 180 | 9.7 | 25.7 | 0.00 | 0.00 | 0.00 | 83 | 1003.4 |
| 20260505114548 | 21 | 180 | 8.0 | 19.3 | 0.00 | 0.00 | 0.00 | 83 | 1003.3 |
| 20260505113548 | 21 | 203 | 11.3 | 20.9 | 0.00 | 0.00 | 0.00 | 83 | 1003.2 |
| 20260505112548 | 21 | 180 | 9.7 | 22.5 | 0.00 | 0.00 | 0.00 | 83 | 1003.2 |
| 20260505111548 | 21 | 158 | 9.7 | 25.7 | 0.00 | 0.00 | 0.00 | 83 | 1003.1 |
| 20260505110548 | 21 | 180 | 9.7 | 20.9 | 0.00 | 0.00 | 0.00 | 83 | 1003.2 |
| 20260505101548 | 22 | 180 | 8.0 | 22.5 | 0.00 | 0.00 | 0.00 | 82 | 1003.4 |
| 20260505100608 | 22 | 180 | 12.9 | 27.4 | 0.00 | 0.00 | 0.00 | 82 | 1003.5 |
| 20260505095608 | 22 | 180 | 9.7 | 19.3 | 0.00 | 0.00 | 0.00 | 82 | 1003.4 |
| 20260505094548 | 22 | 203 | 12.9 | 25.7 | 0.00 | 0.00 | 0.00 | 82 | 1003.5 |
| 20260505093548 | 22 | 203 | 9.7 | 27.4 | 0.00 | 0.00 | 0.00 | 82 | 1003.6 |
| 20260505092548 | 22 | 203 | 11.3 | 29.0 | 0.00 | 0.00 | 0.00 | 82 | 1003.7 |
| 20260505091548 | 22 | 180 | 8.0 | 20.9 | 0.00 | 0.00 | 0.00 | 83 | 1003.8 |
| 20260505090608 | 21 | 180 | 11.3 | 27.4 | 0.00 | 0.00 | 0.00 | 83 | 1003.9 |
| 20260505085548 | 21 | 203 | 8.0 | 20.9 | 0.00 | 0.00 | 0.00 | 83 | 1003.8 |
| 20260505084548 | 21 | 180 | 9.7 | 22.5 | 0.00 | 0.00 | 0.00 | 83 | 1003.7 |
| 20260505083548 | 21 | 180 | 11.3 | 24.1 | 0.00 | 0.00 | 0.00 | 83 | 1003.7 |
| 20260505082548 | 21 | 203 | 9.7 | 20.9 | 0.00 | 0.00 | 0.00 | 83 | 1003.8 |
| 20260505081548 | 21 | 180 | 11.3 | 27.4 | 0.00 | 0.00 | 0.00 | 82 | 1003.9 |
| 20260505080548 | 21 | 180 | 11.3 | 25.7 | 0.00 | 0.00 | 0.00 | 82 | 1003.9 |
| 20260505075548 | 21 | 180 | 11.3 | 25.7 | 0.00 | 0.00 | 0.00 | 82 | 1004.1 |
| 20260505074548 | 21 | 180 | 9.7 | 22.5 | 0.00 | 0.00 | 0.00 | 81 | 1004.3 |
| 20260505073608 | 22 | 158 | 9.7 | 24.1 | 0.00 | 0.00 | 0.00 | 81 | 1004.5 |
| 20260505072548 | 22 | 180 | 9.7 | 27.4 | 0.00 | 0.00 | 0.00 | 80 | 1004.5 |
| 20260505071548 | 22 | 180 | 9.7 | 24.1 | 0.00 | 0.00 | 0.00 | 80 | 1004.8 |
| 20260505070608 | 22 | 180 | 11.3 | 22.5 | 0.00 | 0.00 | 0.00 | 80 | 1004.8 |